This demonstration page uses our WeatherBlox Daily Observations layout. Learn more.

Left ArrowRight Arrow

Hourly Observations for August 16, 2016

Temp ( °F °C ) Dew Point ( °F °C ) Humidity (%) Winds ( mph kmh ) Pressure ( in mb ) Visibility ( mi km ) Precip ( " mm )
12:14 am 00:14 Mostly Cloudy 73 23 72 22 94 94 S 7 11 30 1016 10 16.0934 N/A
12:35 am 00:35 Mostly Cloudy 73 23 72 22 94 94 S 8 13 30 1016 10 16.0934 N/A
12:54 am 00:54 Mostly Cloudy 73 23 72 22 94 94 S 7 11 30 1016 10 16.0934 N/A
1:14 am 01:14 Cloudy 75 24 72 22 89 89 SSW 12 19 30 1016 10 16.0934 N/A
1:35 am 01:35 Mostly Cloudy 73 23 70 21 89 89 S 10 17 30 1016 10 16.0934 N/A
1:54 am 01:54 Clear 72 22 68 20 88 88 SSW 9 15 30 1016 10 16.0934 N/A
2:14 am 02:14 Clear 72 22 68 20 88 88 S 9 15 30 1016 10 16.0934 N/A
2:35 am 02:35 Clear 72 22 68 20 88 88 S 7 11 30 1016 10 16.0934 N/A
2:54 am 02:54 Clear 72 22 68 20 88 88 S 9 15 30 1016 10 16.0934 N/A
3:14 am 03:14 Partly Cloudy 72 22 68 20 88 88 S 10 17 30 1016 10 16.0934 N/A
3:35 am 03:35 Mostly Cloudy 72 22 70 21 94 94 SSW 9 15 30 1016 10 16.0934 N/A
3:54 am 03:54 Mostly Cloudy 72 22 70 21 94 94 SSW 9 15 30 1016 10 16.0934 N/A
4:14 am 04:14 Partly Cloudy 72 22 70 21 94 94 SSW 10 17 30 1016 10 16.0934 N/A
4:35 am 04:35 Partly Cloudy 72 22 70 21 94 94 SSW 8 13 30 1016 10 16.0934 N/A
4:54 am 04:54 Mostly Cloudy 72 22 70 21 94 94 SSW 10 17 30 1016 10 16.0934 N/A
5:14 am 05:14 Cloudy 72 22 70 21 94 94 SSW 9 15 30 1016 10 16.0934 N/A
5:34 am 05:34 Cloudy 72 22 70 21 94 94 SSW 9 15 30 1016 10 16.0934 N/A
5:54 am 05:54 Cloudy 72 22 70 21 94 94 SW 8 13 30 1016 10 16.0934 N/A
6:14 am 06:14 Cloudy 72 22 70 21 94 94 SSW 8 13 30 1016 10 16.0934 N/A
6:34 am 06:34 Cloudy 72 22 70 21 94 94 SW 8 13 30 1016 10 16.0934 N/A
6:54 am 06:54 Cloudy 72 22 70 21 94 94 SW 9 15 30 1016 10 16.0934 N/A
7:15 am 07:15 Cloudy 72 22 70 21 94 94 SW 6 9 30.03 1017 10 16.0934 N/A
7:34 am 07:34 Cloudy 72 22 70 21 94 94 SW 6 9 30.03 1017 10 16.0934 N/A
7:54 am 07:54 Cloudy 72 22 70 21 94 94 SSW 5 7 30.03 1017 7 11.26538 N/A
8:15 am 08:15 Cloudy 72 22 70 21 94 94 SW 5 7 30.03 1017 5 8.0467 N/A
8:34 am 08:34 Cloudy 72 22 70 21 94 94 SW 6 9 30.03 1017 2.5 4.02335 N/A
8:54 am 08:54 Cloudy 72 22 70 21 94 94 SW 6 9 30.03 1017 4 6.43736 N/A
9:15 am 09:15 Cloudy 72 22 70 21 94 94 SW 8 13 30.06 1018 5 8.0467 N/A
9:34 am 09:34 Cloudy 70 21 70 21 100 100 SW 6 9 30.09 1019 3 4.82802 N/A
9:54 am 09:54 Cloudy 70 21 70 21 100 100 WSW 6 9 30.09 1019 4 6.43736 N/A
10:15 am 10:15 Cloudy 72 22 70 21 94 94 SW 5 7 30.06 1018 5 8.0467 N/A
10:34 am 10:34 Cloudy 72 22 70 21 94 94 SW 7 11 30.06 1018 7 11.26538 N/A
10:54 am 10:54 Cloudy 72 22 70 21 94 94 WSW 9 15 30.06 1018 4 6.43736 N/A
11:14 am 11:14 Mostly Cloudy 72 22 70 21 94 94 WSW 7 11 30.06 1018 10 16.0934 N/A
11:34 am 11:34 Mostly Cloudy 73 23 70 21 89 89 WSW 8 13 30.06 1018 10 16.0934 N/A
11:54 am 11:54 Cloudy 72 22 70 21 94 94 WSW 6 9 30.09 1019 10 16.0934 N/A
12:14 pm 12:14 Cloudy 73 23 70 21 89 89 SW 5 7 30.09 1019 10 16.0934 N/A
12:34 pm 12:34 Cloudy 73 23 72 22 94 94 SW 6 9 30.09 1019 10 16.0934 N/A
12:54 pm 12:54 Cloudy 73 23 70 21 89 89 SW 6 9 30.09 1019 10 16.0934 N/A
1:14 pm 13:14 Cloudy 73 23 70 21 89 89 SW 8 13 30.09 1019 10 16.0934 N/A
1:34 pm 13:34 Cloudy 73 23 72 22 94 94 WSW 7 11 30.09 1019 10 16.0934 N/A
1:54 pm 13:54 Cloudy 73 23 70 21 89 89 W 6 9 30.06 1018 7 11.26538 N/A
2:14 pm 14:14 Cloudy 75 24 72 22 89 89 WSW 5 7 30.06 1018 10 16.0934 N/A
2:34 pm 14:34 Cloudy 75 24 70 21 83 83 W 7 11 30.09 1019 10 16.0934 N/A
2:55 pm 14:55 Cloudy 75 24 72 22 89 89 WSW 6 9 30.06 1018 10 16.0934 N/A
3:14 pm 15:14 Cloudy 77 25 72 22 83 83 WSW 7 11 30.06 1018 10 16.0934 N/A
3:34 pm 15:34 Mostly Cloudy 77 25 72 22 83 83 W 8 13 30.06 1018 10 16.0934 N/A
3:55 pm 15:55 Mostly Cloudy 75 24 70 21 83 83 W 7 11 30.06 1018 10 16.0934 N/A
4:14 pm 16:14 Mostly Cloudy 75 24 72 22 89 89 WSW 7 11 30.06 1018 10 16.0934 N/A
4:34 pm 16:34 Mostly Cloudy 77 25 70 21 79 79 WSW 5 7 30.06 1018 10 16.0934 N/A
4:55 pm 16:55 Cloudy 75 24 70 21 83 83 SW 3 6 30.06 1018 10 16.0934 N/A
5:14 pm 17:14 Mostly Cloudy 77 25 72 22 83 83 SW 7 11 30.06 1018 10 16.0934 N/A
5:34 pm 17:34 Mostly Cloudy 79 26 72 22 79 79 SW 8 13 30.06 1018 10 16.0934 N/A
5:55 pm 17:55 Mostly Cloudy 75 24 72 22 89 89 WSW 7 11 30.06 1018 10 16.0934 N/A
6:14 pm 18:14 Cloudy 75 24 72 22 89 89 WSW 3 6 30.06 1018 10 16.0934 N/A
6:34 pm 18:34 Cloudy 75 24 72 22 89 89 SSW 6 9 30.06 1018 10 16.0934 N/A
6:55 pm 18:55 Cloudy 77 25 72 22 83 83 SSW 7 11 30.06 1018 10 16.0934 N/A
7:14 pm 19:14 Mostly Cloudy 75 24 72 22 89 89 SW 8 13 30.06 1018 10 16.0934 N/A
7:34 pm 19:34 Partly Cloudy 75 24 72 22 89 89 SW 7 11 30.06 1018 10 16.0934 N/A
7:54 pm 19:54 Partly Cloudy 73 23 70 21 89 89 SW 7 11 30.09 1019 10 16.0934 N/A
8:14 pm 20:14 Sunny 73 23 70 21 89 89 SW 6 9 30.09 1019 10 16.0934 N/A
8:35 pm 20:35 Sunny 73 23 70 21 89 89 SSW 3 6 30.09 1019 10 16.0934 N/A
8:54 pm 20:54 Partly Cloudy 73 23 70 21 89 89 SSW 5 7 30.09 1019 10 16.0934 N/A
9:14 pm 21:14 Partly Cloudy 72 22 70 21 94 94 SSW 5 7 30.09 1019 10 16.0934 N/A
9:35 pm 21:35 Partly Cloudy 72 22 70 21 94 94 SW 5 7 30.09 1019 10 16.0934 N/A
9:54 pm 21:54 Mostly Cloudy 72 22 70 21 94 94 SSW 6 9 30.15 1021 10 16.0934 N/A
10:14 pm 22:14 Partly Cloudy 72 22 70 21 94 94 S 3 6 30.15 1021 10 16.0934 N/A
10:35 pm 22:35 Partly Cloudy 72 22 70 21 94 94 Calm 30.15 1021 10 16.0934 N/A
10:54 pm 22:54 Mostly Cloudy 72 22 70 21 94 94 SSW 3 6 30.15 1021 10 16.0934 N/A
11:14 pm 23:14 Mostly Cloudy 70 21 70 21 100 100 S 3 6 30.15 1021 10 16.0934 N/A
11:35 pm 23:35 Cloudy 70 21 70 21 100 100 S 3 6 30.15 1021 10 16.0934 N/A
11:54 pm 23:54 Mostly Cloudy 70 21 70 21 100 100 Calm 30.15 1021 10 16.0934 N/A

Powered by AerisWeather